Weather History for Poplar Bluff, MO

Change the Weather History Date:

Wednesday, February 20, 2013

  Actual Average Record
Temperature  
Mean Temperature 30 °F -  
Max Temperature 33 °F 50 °F 74 °F (1981)
Min Temperature 28 °F 29 °F 12 °F (1934)
Degree Days  
Heating Degree Days 34    
Moisture  
Dew Point 15 °F    
Average Humidity 53    
Maximum Humidity 64    
Minimum Humidity 45    
Precipitation  
Precipitation 0.00 in - - ()
Sea Level Pressure  
Sea Level Pressure 30.32 in    
Wind  
Wind Speed 7 mph (NE)    
Max Wind Speed 13 mph    
Max Gust Speed -    
Visibility 10 miles    
Events      
Averages and records for this station are not official NWS values.
T = Trace of Precipitation, MM = Missing Value Source: NWS Daily Summary

Daily Weather History Graph

Daily Weather History Graph

Search for Another Location

Airport:

Trip Planner

Search our weather history database for the weather conditions in past years. The results will help you decide how hot, cold, wet, or windy it might be!

Date:

Astronomy

Feb. 20, 2013 Rise Set
Actual Time 6:43 AM CST 5:47 PM CST
Civil Twilight 6:17 AM CST 6:13 PM CST
Nautical Twilight 5:46 AM CST 6:43 PM CST
Astronomical Twilight 5:16 AM CST 7:13 PM CST
Moon 1:13 PM CST (2/20) 2:59 AM CST (2/20)
Length of Visible Light 11h 56m
Length of Day
11h 03m
Waxing Gibbous, 76% of the Moon is Illuminated
Feb 20
Waxing Gibbous
Feb 25
Full
Mar 4
Last Quarter
Mar 11
New
Mar 19
First Quarter

Hourly Weather History & Observations

Time (CST) Temp. Windchill Dew Point Humidity Pressure Visibility Wind Dir Wind Speed Gust Speed Precip Events Conditions
12:53 AM 30.9 °F 24.3 °F 16.0 °F 54% 30.32 in 10.0 mi North 6.9 mph - N/A   Clear
1:53 AM 30.0 °F 26.5 °F 15.1 °F 54% 30.31 in 10.0 mi North 3.5 mph - N/A   Clear
2:53 AM 28.9 °F 22.8 °F 12.9 °F 51% 30.33 in 10.0 mi NNW 5.8 mph - N/A   Clear
3:53 AM 28.0 °F 24.2 °F 14.0 °F 56% 30.34 in 10.0 mi NNW 3.5 mph - N/A   Clear
4:53 AM 28.0 °F 21.7 °F 14.0 °F 56% 30.33 in 10.0 mi NE 5.8 mph - N/A   Clear
6:53 AM 28.0 °F 20.8 °F 10.0 °F 47% 30.35 in 10.0 mi NNE 6.9 mph - N/A   Clear
7:53 AM 28.0 °F 22.8 °F 10.0 °F 47% 30.40 in 10.0 mi North 4.6 mph - N/A   Clear
9:53 AM 28.9 °F 22.8 °F 10.0 °F 45% 30.40 in 10.0 mi NE 5.8 mph - N/A   Clear
10:53 AM 28.9 °F - 12.0 °F 49% 30.39 in - North - - N/A   Clear
11:53 AM 30.0 °F 22.4 °F 10.9 °F 45% 30.40 in 10.0 mi NE 8.1 mph - N/A   Clear
12:53 PM 30.9 °F 24.3 °F 12.0 °F 46% 30.38 in 10.0 mi ENE 6.9 mph - N/A   Scattered Clouds
1:53 PM 32.0 °F 24.2 °F 14.0 °F 48% 30.32 in 10.0 mi NE 9.2 mph - N/A   Scattered Clouds
2:53 PM 32.0 °F 24.2 °F 14.0 °F 48% 30.29 in 10.0 mi ENE 9.2 mph - N/A   Mostly Cloudy
3:53 PM 33.1 °F 24.9 °F 15.1 °F 48% 30.29 in 10.0 mi ENE 10.4 mph - N/A   Overcast
4:53 PM 32.0 °F 23.6 °F 16.0 °F 52% 30.28 in 10.0 mi NE 10.4 mph - N/A   Overcast
5:53 PM 32.0 °F 26.4 °F 18.0 °F 56% 30.30 in 10.0 mi ENE 5.8 mph - N/A   Mostly Cloudy
6:53 PM 32.0 °F 27.5 °F 18.0 °F 56% 30.30 in 10.0 mi ENE 4.6 mph - N/A   Mostly Cloudy
7:53 PM 32.0 °F 25.6 °F 19.9 °F 61% 30.29 in 10.0 mi ENE 6.9 mph - N/A   Overcast
8:53 PM 32.0 °F 24.2 °F 19.0 °F 59% 30.28 in 10.0 mi NE 9.2 mph - N/A   Overcast
9:53 PM 30.9 °F 24.3 °F 19.9 °F 64% 30.29 in 10.0 mi NE 6.9 mph - N/A   Overcast
10:53 PM 30.9 °F 23.5 °F 19.0 °F 61% 30.29 in 10.0 mi NE 8.1 mph - N/A   Overcast
11:53 PM 30.0 °F 20.0 °F 19.0 °F 64% 30.27 in 10.0 mi NE 12.7 mph - N/A   Overcast